Regional Weather Roundup
Issued by NWS

Home | Current Version | Previous Version | Text Only | Print | Product List | Glossary On
Versions: 1 2 3 4 5 6 7 8 9 10 11 12 13 14 15 16 17 18 19 20 21 22 23 24 25 26 27 28 29 30 31 32 33 34 35 36 37 38 39 40 41 42 43 44 45 46 47 48 49 50
072
ASUS43 KDTX 252301
RWRMI
MICHIGAN HOURLY REGIONAL WEATHER ROUNDUP
NATIONAL WEATHER SERVICE DETROIT/PONTIAC MI
700 PM EDT SAT MAR 25 2017

NOTE: "FAIR" INDICATES FEW OR NO CLOUDS BELOW 12,000 FEET WITH NO
SIGNIFICANT WEATHER AND/OR OBSTRUCTION TO VISIBILITY.

MIZ047>049-052>055-059>063-066>070-074>076-081>083-260000-
SOUTHEAST LOWER MICHIGAN

CITY           SKY/WX    TMP DP  RH WIND       PRES   REMARKS
ADRIAN         CLOUDY    44  40  85 E20       30.14F
ALMA           CLOUDY    38  38  98 E16       30.18F WCI  30
ANN ARBOR      CLOUDY    43  39  86 NE14G21   30.17S
BAD AXE        CLOUDY    37  35  94 E7        30.25F WCI  31
CARO           CLOUDY    38  37  94 E9G16     30.23R WCI  32
DETROIT CITY   CLOUDY    42  40  92 NE12      30.21S
DETROIT        CLOUDY    44  38  79 E13       30.20S
FLINT          CLOUDY    41  39  93 E14       30.20S
GROSSE ILE     CLOUDY    43  38  81 E12       30.18S
HILLSDALE      CLOUDY    45  41  87 E14       30.09F
HOWELL         CLOUDY    43  40  91 E13G20    30.15F

CITY           SKY/WX    TMP DP  RH WIND       PRES   REMARKS
JACKSON        CLOUDY    45  42  89 E9        30.12F
LAMBERTVILLE   CLOUDY    40  36  83 E14G24    30.16S WCI  33
LANSING        CLOUDY    43  40  89 E12       30.15F
LAPEER         DRIZZLE   39  39  98 E7        30.22R WCI  34
MASON          CLOUDY    44  42  94 E8        30.15R
MONROE         CLOUDY    42  38  86 E12G18    30.17S
MT. CLEMENS    CLOUDY    41  40  99 NE15      30.20S
PONTIAC        CLOUDY    41  39  93 E6        30.18S FOG
PORT HOPE        N/A     35  33  92 E14       30.25F WCI  26
TRI CITIES     CLOUDY    39  38  96 E14       30.22F WCI  31
MIDLAND        CLOUDY    36  35  94 NE10      30.22F WCI  29
TROY           CLOUDY    42  39  89 E15       30.22S
SAGINAW HB     CLOUDY    39  36  87 E14       30.22S WCI  31
$$
MIZ043>046-050>051-056>058-064>065-071>073-077>080-260000-
SOUTHWEST LOWER MICHIGAN

CITY           SKY/WX    TMP DP  RH WIND       PRES   REMARKS
BATTLE CREEK   CLOUDY    46  43  89 E13       30.08F
BENTON HARBOR  RAIN      51  45  79 E13G24    30.01R
BIG RAPIDS     CLOUDY    36  33  91 E12       30.14S WCI  27
COLDWATER      LGT RAIN  47  44  89 E13G21    30.08S
FREMONT        CLOUDY    38  36  91 E10G22    30.11S WCI  31
HOLLAND        CLOUDY    43  40  89 E14       30.06F
GRAND RAPIDS   CLOUDY    41  38  89 E22G28    30.11S
IONIA          LGT RAIN  39  38  94 E16G22    30.13F WCI  30
KALAMAZOO      CLOUDY    47  42  83 E9G17     30.07F HAZE
LUDINGTON      CLOUDY    38  37  92 E18G26    30.10F WCI  29
MARSHALL       CLOUDY    45  44  98 E9G18     30.10S FOG
MOUNT PLEASANT CLOUDY    36  34  94 E10G16    30.19F WCI  28
MUSKEGON       CLOUDY    41  38  89 E17G26    30.08F
SOUTH HAVEN    CLOUDY    46  44  91 E17       30.03R
$$
MIZ016>042-260000-
NORTHERN LOWER MICHIGAN

CITY           SKY/WX    TMP DP  RH WIND       PRES   REMARKS
ALPENA         CLOUDY    32  27  81 E9        30.32R WCI  24
BEAVER ISLAND  CLOUDY    33  28  83 E16G23    30.26S WCI  23
BELLAIRE       CLOUDY    38  29  68 E12       30.24S WCI  31
CADILLAC       LGT RAIN  34  33  95 E14G24    30.15F WCI  25
CHARLEVOIX     CLOUDY    39  30  71 E12       30.27R WCI  31
FRANKFORT      CLOUDY    40  32  73 E9G17     30.16F WCI  34
GAYLORD        CLOUDY    34  27  75 VRB7      30.23S WCI  28
GRAYLING       CLOUDY    34  30  86 E14       30.24S WCI  24
HARBOR SPRINGS CLOUDY    36  29  76 E16G22    30.26R WCI  26
HOUGHTON LAKE  CLOUDY    34  31  88 E15       30.23S WCI  24
MANISTEE       LGT RAIN  38  35  89 E20G25    30.11F WCI  28
OSCODA         CLOUDY    34  32  92 NE14      30.28S WCI  25
PELLSTON       CLOUDY    35  26  69 E10       30.28R WCI  27
ROGERS CITY    CLOUDY    33  24  71 E13         N/A  WCI  24
TRAVERSE CITY  CLOUDY    40  32  73 E7        30.21S
$$
MIZ007>008-015-260000-
EASTERN UPPER MICHIGAN

CITY           SKY/WX    TMP DP  RH WIND       PRES   REMARKS
KINROSS        CLOUDY    35   9  33 SE18      30.31R WCI  24
MACKINAC ISLAN CLOUDY    32  26  78 E10G20    30.30R WCI  24
NEWBERRY       CLOUDY    37  22  55 E12       30.27R WCI  29
S. S. MARIE    CLEAR     37  12  35 SE12G21   30.31R WCI  29
MUNISING         N/A     35  30  82 N6        30.26R WCI  30
$$
MIZ004>006-011>014-085-260000-
CENTRAL UPPER MICHIGAN

CITY           SKY/WX    TMP DP  RH WIND       PRES   REMARKS
ESCANABA       CLOUDY    37  28  70 E14       30.25S WCI  28
MENOMINEE        N/A    N/A N/A N/A MISG        N/A
SAWYER-GWINN   CLOUDY    36  30  80 NE8       30.23S WCI  29
$$
MIZ001>003-009>011-084-260000-
WESTERN UPPER MICHIGAN

CITY           SKY/WX    TMP DP  RH WIND       PRES   REMARKS
IRON MOUNTAIN  CLOUDY    39  26  59 E8        30.19S WCI  33
HOUGHTON       CLOUDY    30  25  81 E14       30.24S WCI  19
COPPER HARBOR    N/A     32  25  75 SE7       30.27F WCI  26
IRONWOOD       CLOUDY    38  30  73 E9        30.17S WCI  31
$$

ABBREVIATIONS USED IN REMARKS
   TC - TEMPERATURE IN CELSIUS
  WCI - WIND CHILL INDEX
   HX - HEAT INDEX
  VSB - VISIBILITY





USA.gov is the U.S. government's official web portal to all federal, state and local government web resources and services.